[[{"header":{"parameterUnit":"m.s-1","parameterCategory":1,"la1":30.2991,"la2":30.254,"lo1":-89.0895,"lo2":-89.0444,"dy":0.0017,"dx":0.0017,"nx":28,"ny":28,"refTime":"2024-08-12T09:00:00:Z","depth":0,"parameterNumber":2,"parameterNumberName":"U-component_of_WINDS"},"data":[0,0,0,0,0,0,0,0,0,0,0,0,0,0,0,0,0,0,0,0,0,0,0,0,0,0,0,0,0,0,0,0,0,0,0,0,0,0,0,0,0,0,0,0,0,0,0,0,0,0,0,0,0,0,0,0,0,0,4.069,4.0692,0,4.0805,4.0806,4.0807,4.0729,4.0726,4.0722,4.0719,4.0839,4.0845,4.0852,0,0,0,0,0,0,0,0,0,0,0,0,0,4.0406,4.0411,4.069,4.0692,4.0693,4.0805,4.0806,4.0808,4.073,4.0725,4.0721,4.0717,4.0837,4.0844,4.0852,0,0,0,0,0,0,0,0,0,0,0,0,0,4.0526,4.0413,4.069,4.0668,4.0667,4.0804,4.0806,4.0808,4.0731,4.0725,4.072,4.0715,4.0834,4.0844,4.0853,4.102,0,0,4.0883,4.0887,0,0,0,0,0,0,0,0,4.0519,4.0536,4.0669,4.0669,4.0669,4.0747,4.075,4.0879,4.0732,4.0707,4.0719,4.0712,4.0813,4.0824,4.0857,4.1026,4.1031,4.0884,4.089,4.0894,4.0897,0,0,0,0,0,0,0,4.0511,4.0531,4.0736,4.0671,4.0671,4.0652,4.0663,4.0774,4.0788,4.0708,4.0703,4.0717,4.0812,4.0848,4.086,4.1033,4.0884,4.0892,4.0898,4.0902,4.1342,4.1347,0,0,0,0,0,0,4.0504,4.0524,4.0732,4.0739,4.0579,4.0662,4.0674,4.0727,4.0787,4.0791,4.0722,4.0713,4.0834,4.0848,4.0863,4.1061,4.0894,4.0903,4.0909,4.1336,4.1343,4.135,0,0,0,0,0,0,4.0498,4.0523,4.0727,4.063,4.0655,4.0672,4.0733,4.0732,4.0769,4.0797,4.0799,4.0756,4.083,4.085,4.0981,4.1064,4.0908,4.0916,4.1329,4.1338,4.1346,4.1459,0,0,0,0,0,0,4.049,4.0522,4.0585,4.0632,4.066,4.0843,4.0738,4.0739,4.0785,4.0775,4.083,4.0834,4.0828,4.0967,4.0991,4.1075,4.0924,4.1322,4.1333,4.1344,4.1448,4.1471,4.149,0,0,0,0,0,4.0481,4.0613,4.0589,4.0614,4.074,4.0848,4.0864,4.0853,4.0792,4.0856,4.0874,4.0832,4.1052,4.0981,4.1007,4.1096,4.1317,4.133,4.1343,4.1439,4.1466,4.149,0,0,0,0,0,0,4.0577,4.0619,4.0592,4.0744,4.0793,4.0834,4.0915,4.0883,4.0951,4.0939,4.0924,4.0937,4.1074,4.1098,4.1019,4.1259,4.1174,4.1194,4.1239,4.1265,4.1286,4.1277,4.0932,0,0,0,0,0,4.0616,4.0699,4.0732,4.0863,4.0889,4.0898,4.0945,4.0932,4.0982,4.1003,4.103,4.1081,4.1161,4.1215,4.129,4.1451,4.1462,4.1525,4.1546,4.1563,4.158,4.1665,4.1694,4.1393,4.1392,4.1392,0,0,4.0697,4.073,4.0784,4.0883,4.0919,4.1006,4.0916,4.1012,4.1077,4.1018,4.1142,4.1165,4.1221,4.1367,4.1433,4.1392,4.1665,4.158,4.1593,4.1601,4.1682,4.171,4.1735,4.1401,4.14,4.1398,0,0,4.0889,4.0923,4.1035,4.1073,4.1128,4.1133,4.116,4.1207,4.1218,4.1343,4.13,4.1377,4.1516,4.1557,4.1596,4.1803,4.1766,4.1828,4.1937,4.2021,4.2045,4.2066,4.2138,4.2165,4.1844,4.1845,4.1845,0,4.0983,4.1112,4.1097,4.1196,4.1241,4.119,4.1303,4.134,4.1418,4.145,4.1402,4.1574,4.1608,4.1763,4.1813,4.1847,4.1877,4.1821,4.2042,4.2063,4.2083,4.2152,4.2179,4.1852,4.1851,4.185,4.1849,0,4.1225,4.1315,4.1399,4.1473,4.1527,4.1633,4.1634,4.1691,4.1673,4.1683,4.1811,4.185,4.1931,4.1967,4.1952,4.212,4.2092,4.2044,4.1958,4.2119,4.2183,4.2209,4.1862,4.1859,4.1857,4.1855,0,0,4.1482,4.1545,4.1576,4.1609,4.1665,4.1735,4.1838,4.1917,4.1965,4.2021,4.2106,4.2224,4.2179,4.2224,4.2213,4.2286,4.2446,4.2229,4.223,4.2267,4.2632,4.2667,4.2698,4.2422,4.2427,4.2431,4.2627,0,4.1676,4.1855,4.1843,4.2012,4.2094,4.2046,4.2136,4.2181,4.2193,4.2265,4.2279,4.2362,4.2297,4.2323,4.2394,4.2411,4.2519,4.2397,4.2502,4.2505,4.2488,4.2732,4.277,4.2953,4.2652,4.2656,4.2659,0,4.1927,4.1989,4.2165,4.2208,4.2242,4.2323,4.2393,4.2463,4.2512,4.2516,4.2565,4.2541,4.2645,4.2557,4.27,4.2618,4.266,4.2675,4.2682,4.269,4.2592,4.2746,4.3011,4.3038,4.2699,4.2696,4.2693,0,4.2095,4.2223,4.2344,4.2374,4.2427,4.2485,4.251,4.2554,4.2601,4.2663,4.2694,4.2768,4.2808,4.2866,4.2863,4.2799,4.3008,4.292,4.3013,4.3013,4.3059,4.3056,4.3333,4.3088,4.3088,4.3087,4.3086,0,4.2313,4.2423,4.242,4.2495,4.2616,4.2602,4.2722,4.2741,4.278,4.2858,4.2822,4.2896,4.2887,4.2961,4.296,4.3078,4.3097,4.3102,4.31,4.3105,4.3104,4.3132,4.3119,4.3094,4.3093,4.3091,4.309,0,4.2521,4.2524,4.2653,4.2692,4.2705,4.2792,4.2826,4.2897,4.2905,4.3003,4.3026,4.3039,4.3125,4.3127,4.3226,4.3224,4.3368,4.3353,4.3351,4.3348,4.3441,4.3432,4.3745,4.3785,4.3515,4.3517,4.3519,0,4.266,4.2742,4.279,4.2838,4.2867,4.2946,4.2993,4.2983,4.3034,4.3096,4.3159,4.3241,4.3305,4.3444,4.3463,4.3538,4.3523,4.3628,4.3534,4.3536,4.3523,4.3518,4.3526,4.3646,4.3649,4.3651,4.3653,0,4.2905,4.2902,4.2971,4.3041,4.3099,4.3154,4.3205,4.3247,4.3242,4.3301,4.3387,4.3437,4.3537,4.3618,4.369,4.3716,4.3685,4.3683,4.3708,4.3713,4.3708,4.3711,4.34,4.3675,4.3673,4.3672,4.367,4.367,4.3082,4.3152,4.3196,4.3274,4.3311,4.3359,4.3427,4.3443,4.3514,4.3593,4.3583,4.3678,4.3725,4.3818,4.385,4.3925,4.3889,4.3926,4.3935,4.3944,4.3954,4.3697,4.3938,4.3938,4.3937,4.3937,4.3936,0,4.3324,4.3349,4.3421,4.3492,4.3554,4.3517,4.3571,4.3625,4.3709,4.3755,4.3818,4.3917,4.3995,4.402,4.4095,4.4151,4.4138,4.4171,4.4166,4.4173,4.3982,4.3952,4.418,4.418,4.418,4.418,4.418,4.418,4.3457,4.3574,4.3576,4.371,4.3735,4.3827,4.3861,4.3905,4.394,4.4051,4.4116,4.4131,4.4168,4.4246,4.4316,4.4321,4.435,4.4389,4.4389,4.4211,4.4186,4.4163,4.4134,4.4396,4.4396,4.4572,4.4574,4.4575]},{"header":{"parameterUnit":"m.s-1","parameterCategory":1,"la1":30.2991,"la2":30.254,"lo1":-89.0895,"lo2":-89.0444,"dy":0.0017,"dx":0.0017,"nx":28,"ny":28,"refTime":"2024-08-12T09:00:00:Z","depth":0,"parameterNumber":3,"parameterNumberName":"V-component_of_WINDS"},"data":[0,0,0,0,0,0,0,0,0,0,0,0,0,0,0,0,0,0,0,0,0,0,0,0,0,0,0,0,0,0,0,0,0,0,0,0,0,0,0,0,0,0,0,0,0,0,0,0,0,0,0,0,0,0,0,0,0,0,-0.1439,-0.144,0,-0.1479,-0.148,-0.148,-0.151,-0.1511,-0.1511,-0.1511,-0.1554,-0.1555,-0.1556,0,0,0,0,0,0,0,0,0,0,0,0,0,-0.1392,-0.1393,-0.1439,-0.144,-0.144,-0.1479,-0.148,-0.148,-0.151,-0.1511,-0.1511,-0.1511,-0.1554,-0.1555,-0.1556,0,0,0,0,0,0,0,0,0,0,0,0,0,-0.142,-0.1393,-0.1439,-0.146,-0.1462,-0.1479,-0.148,-0.148,-0.151,-0.1511,-0.1511,-0.1511,-0.1554,-0.1555,-0.1556,-0.1557,0,0,-0.1561,-0.1561,0,0,0,0,0,0,0,0,-0.1419,-0.1422,-0.1456,-0.1458,-0.1461,-0.149,-0.1479,-0.1506,-0.151,-0.1492,-0.1511,-0.1512,-0.1533,-0.1536,-0.1543,-0.1559,-0.1561,-0.1561,-0.1562,-0.1562,-0.1563,0,0,0,0,0,0,0,-0.1417,-0.142,-0.1455,-0.1457,-0.146,-0.1468,-0.1473,-0.1484,-0.151,-0.1494,-0.1496,-0.15,-0.1534,-0.1541,-0.1544,-0.1561,-0.1561,-0.1562,-0.1563,-0.1563,-0.1581,-0.1581,0,0,0,0,0,0,-0.1411,-0.1419,-0.1454,-0.1456,-0.144,-0.1469,-0.1474,-0.148,-0.151,-0.1515,-0.15,-0.1501,-0.1539,-0.1542,-0.1546,-0.1549,-0.1562,-0.1563,-0.1564,-0.1582,-0.1581,-0.1581,0,0,0,0,0,0,-0.141,-0.1414,-0.1452,-0.1438,-0.1444,-0.1469,-0.1476,-0.1481,-0.1488,-0.1514,-0.1519,-0.1502,-0.1539,-0.1544,-0.1554,-0.155,-0.1564,-0.1565,-0.1582,-0.1581,-0.1581,-0.1554,0,0,0,0,0,0,-0.1408,-0.1413,-0.1413,-0.1438,-0.1444,-0.1459,-0.1476,-0.1482,-0.149,-0.1493,-0.1518,-0.1522,-0.154,-0.1552,-0.1555,-0.1553,-0.1566,-0.1582,-0.1582,-0.1581,-0.1555,-0.1553,-0.155,0,0,0,0,0,-0.1407,-0.1404,-0.1413,-0.1417,-0.1444,-0.1458,-0.1462,-0.1482,-0.149,-0.149,-0.1507,-0.1522,-0.155,-0.1552,-0.1557,-0.1554,-0.1583,-0.1582,-0.1581,-0.1556,-0.1553,-0.155,0,0,0,0,0,0,-0.1378,-0.1407,-0.1418,-0.1423,-0.1438,-0.1464,-0.1464,-0.1478,-0.1491,-0.1493,-0.1518,-0.1523,-0.1531,-0.1544,-0.1546,-0.1557,-0.1568,-0.1568,-0.1548,-0.1545,-0.1543,-0.154,-0.1567,0,0,0,0,0,-0.1373,-0.1381,-0.1406,-0.1409,-0.1416,-0.1439,-0.1446,-0.1459,-0.1477,-0.1483,-0.1501,-0.1518,-0.1531,-0.1539,-0.1552,-0.1557,-0.1564,-0.1558,-0.1556,-0.1553,-0.1553,-0.1558,-0.1556,-0.1578,-0.1578,-0.1578,0,0,-0.1361,-0.1378,-0.1382,-0.1403,-0.1417,-0.1426,-0.1444,-0.1452,-0.146,-0.1485,-0.1495,-0.1509,-0.153,-0.1538,-0.1542,-0.1549,-0.1549,-0.1552,-0.1551,-0.1552,-0.1557,-0.1555,-0.1553,-0.1578,-0.1578,-0.1578,0,0,-0.1344,-0.1358,-0.1361,-0.1374,-0.1394,-0.141,-0.1411,-0.1435,-0.1445,-0.1456,-0.1475,-0.1485,-0.1506,-0.152,-0.153,-0.152,-0.1534,-0.1524,-0.1511,-0.1515,-0.1514,-0.1512,-0.1509,-0.1508,-0.1524,-0.1524,-0.1524,0,-0.1328,-0.1341,-0.1362,-0.1369,-0.1379,-0.1401,-0.1406,-0.1418,-0.1441,-0.1448,-0.1455,-0.1483,-0.1498,-0.151,-0.1508,-0.1515,-0.1518,-0.1521,-0.1512,-0.1511,-0.151,-0.1507,-0.1506,-0.1522,-0.1522,-0.1523,-0.1523,0,-0.132,-0.1329,-0.133,-0.1351,-0.1361,-0.1367,-0.1389,-0.1397,-0.141,-0.1425,-0.1437,-0.1456,-0.1474,-0.1478,-0.1492,-0.1493,-0.1496,-0.1507,-0.1519,-0.1506,-0.1504,-0.1503,-0.152,-0.1521,-0.1521,-0.1522,0,0,-0.1286,-0.1319,-0.1319,-0.1329,-0.1354,-0.1362,-0.137,-0.1387,-0.1393,-0.1409,-0.1416,-0.1435,-0.1445,-0.1457,-0.1472,-0.1476,-0.1468,-0.1487,-0.1487,-0.1483,-0.1471,-0.1462,-0.1461,-0.1477,-0.1477,-0.1477,-0.1469,0,-0.1273,-0.1287,-0.1306,-0.1314,-0.1324,-0.1346,-0.1353,-0.1369,-0.1384,-0.1395,-0.1412,-0.1425,-0.1437,-0.1444,-0.1449,-0.1467,-0.1466,-0.1468,-0.1486,-0.1486,-0.148,-0.146,-0.1451,-0.1442,-0.1469,-0.1469,-0.1469,0,-0.126,-0.1274,-0.1283,-0.1307,-0.1312,-0.1317,-0.1335,-0.1345,-0.1365,-0.1375,-0.1388,-0.1405,-0.1416,-0.1426,-0.1442,-0.1444,-0.1452,-0.1462,-0.1463,-0.1465,-0.1476,-0.1462,-0.144,-0.1439,-0.1467,-0.1468,-0.1468,0,-0.1235,-0.1256,-0.1264,-0.1272,-0.1301,-0.1304,-0.1317,-0.1336,-0.1346,-0.1362,-0.1368,-0.1386,-0.1395,-0.1409,-0.143,-0.1436,-0.1444,-0.1456,-0.1454,-0.1453,-0.1454,-0.1454,-0.1434,-0.146,-0.146,-0.146,-0.146,0,-0.1219,-0.1223,-0.1253,-0.1258,-0.1265,-0.1287,-0.1293,-0.1308,-0.1325,-0.1335,-0.1355,-0.1364,-0.1391,-0.1404,-0.1421,-0.1432,-0.1436,-0.1445,-0.145,-0.1444,-0.1442,-0.1449,-0.1451,-0.1459,-0.1459,-0.146,-0.146,0,-0.1191,-0.1211,-0.1222,-0.1248,-0.1255,-0.1258,-0.1281,-0.1288,-0.1304,-0.1315,-0.1319,-0.1345,-0.1361,-0.1383,-0.1406,-0.1418,-0.1426,-0.1433,-0.1419,-0.1422,-0.1418,-0.1418,-0.1402,-0.1401,-0.1427,-0.1427,-0.1426,0,-0.1179,-0.1183,-0.121,-0.1217,-0.1228,-0.124,-0.1249,-0.1273,-0.1282,-0.1305,-0.1309,-0.1326,-0.1341,-0.1365,-0.1386,-0.1404,-0.1412,-0.1405,-0.1415,-0.1409,-0.1412,-0.1412,-0.1413,-0.1403,-0.1402,-0.1402,-0.1402,0,-0.1157,-0.1167,-0.1179,-0.1196,-0.1206,-0.1221,-0.1236,-0.1241,-0.1268,-0.1278,-0.1293,-0.1305,-0.1328,-0.1345,-0.1365,-0.1379,-0.1395,-0.1398,-0.1399,-0.1392,-0.1384,-0.1389,-0.1413,-0.1399,-0.1399,-0.1399,-0.1399,-0.1399,-0.1137,-0.1142,-0.1162,-0.1175,-0.1189,-0.1203,-0.1211,-0.1228,-0.1241,-0.1261,-0.1274,-0.1289,-0.131,-0.134,-0.1353,-0.1366,-0.1373,-0.1373,-0.1374,-0.1373,-0.1371,-0.1382,-0.137,-0.137,-0.137,-0.1371,-0.1371,0,-0.1116,-0.113,-0.1142,-0.1163,-0.1174,-0.1187,-0.1205,-0.1214,-0.1226,-0.1244,-0.1258,-0.1277,-0.1294,-0.1317,-0.1336,-0.1342,-0.135,-0.1346,-0.1346,-0.1349,-0.1364,-0.1362,-0.134,-0.134,-0.134,-0.134,-0.134,-0.134,-0.1106,-0.1115,-0.1128,-0.1145,-0.1159,-0.1173,-0.1182,-0.1196,-0.121,-0.123,-0.1244,-0.1258,-0.1279,-0.13,-0.1316,-0.1323,-0.1329,-0.1323,-0.1332,-0.1345,-0.1348,-0.1351,-0.1349,-0.1324,-0.1324,-0.1316,-0.1316,-0.1316]}]]